[[{"header":{"parameterUnit":"m.s-1","parameterCategory":2,"la1":30.2991,"la2":30.254,"lo1":-89.0895,"lo2":-89.0444,"dy":0.0017,"dx":0.0017,"nx":28,"ny":28,"refTime":"2025-12-22T03:00:00:Z","depth":"0","parameterNumber":2,"parameterNumberName":"U-component_of_CURRENTS"},"data":[0,0,0,0,0,0,0,0,0,0,0,0,0,0,0,0,0,0,0,0,0,0,0,0,0,0,0,0,0,0,0,0,0,0,0,0,0,0,0,0,0,0,0,0,0,0,0,0,0,0,0,0,0,0,0,0,0,0,-0.2356,-0.2356,0,-0.2354,-0.2354,-0.2354,-0.2347,-0.2347,-0.2346,-0.2346,-0.2278,-0.2276,-0.2275,0,0,0,0,0,0,0,0,0,0,0,0,0,-0.2384,-0.2383,-0.2356,-0.2356,-0.2356,-0.2354,-0.2354,-0.2354,-0.2347,-0.2347,-0.2346,-0.2346,-0.2279,-0.2277,-0.2275,0,0,0,0,0,0,0,0,0,0,0,0,0,-0.2376,-0.2383,-0.2356,-0.2352,-0.2352,-0.2354,-0.2354,-0.2354,-0.2347,-0.2347,-0.2346,-0.2346,-0.2279,-0.2277,-0.2274,-0.2265,0,0,-0.2267,-0.2266,0,0,0,0,0,0,0,0,-0.2376,-0.2375,-0.2353,-0.2352,-0.2352,-0.235,-0.2339,-0.2321,-0.2347,-0.2349,-0.2346,-0.2346,-0.2296,-0.2292,-0.2294,-0.2262,-0.2259,-0.2267,-0.2265,-0.2264,-0.2263,0,0,0,0,0,0,0,-0.2377,-0.2375,-0.2356,-0.2353,-0.2352,-0.2361,-0.2359,-0.2336,-0.2323,-0.2349,-0.2348,-0.2348,-0.2296,-0.2296,-0.2292,-0.2258,-0.2267,-0.2265,-0.2263,-0.2262,-0.2295,-0.2298,0,0,0,0,0,0,-0.2375,-0.2375,-0.2356,-0.2356,-0.2364,-0.236,-0.2359,-0.2351,-0.2325,-0.2321,-0.2348,-0.2347,-0.2301,-0.2295,-0.2289,-0.2334,-0.2264,-0.2262,-0.226,-0.2293,-0.2296,-0.2299,0,0,0,0,0,0,-0.2376,-0.2373,-0.2356,-0.2366,-0.2364,-0.236,-0.2352,-0.2351,-0.2353,-0.2325,-0.232,-0.2351,-0.23,-0.2293,-0.2296,-0.2329,-0.2261,-0.2259,-0.229,-0.2294,-0.2297,-0.2386,0,0,0,0,0,0,-0.2376,-0.2373,-0.2371,-0.2365,-0.2364,-0.239,-0.2352,-0.2352,-0.2354,-0.2353,-0.2325,-0.2319,-0.2299,-0.23,-0.2294,-0.2324,-0.2257,-0.2287,-0.2292,-0.2296,-0.2381,-0.2393,-0.2403,0,0,0,0,0,-0.2377,-0.2396,-0.237,-0.2368,-0.2358,-0.2392,-0.2394,-0.2389,-0.2354,-0.2383,-0.2357,-0.232,-0.2324,-0.23,-0.2291,-0.2323,-0.2285,-0.2291,-0.2296,-0.2375,-0.239,-0.2403,0,0,0,0,0,0,-0.2403,-0.2397,-0.2369,-0.238,-0.2391,-0.2391,-0.2408,-0.239,-0.2391,-0.2375,-0.2338,-0.2333,-0.2356,-0.2328,-0.2302,-0.235,-0.2303,-0.2306,-0.2366,-0.2379,-0.2391,-0.2354,-0.2255,0,0,0,0,0,-0.2403,-0.2411,-0.2409,-0.2413,-0.2421,-0.2405,-0.2412,-0.2407,-0.2403,-0.2402,-0.2386,-0.2369,-0.2372,-0.2365,-0.2367,-0.2375,-0.2312,-0.2396,-0.2407,-0.2417,-0.2386,-0.2322,-0.2323,-0.2316,-0.2316,-0.2316,0,0,-0.2401,-0.2405,-0.24,-0.2418,-0.2415,-0.2431,-0.2411,-0.2429,-0.2436,-0.2392,-0.2404,-0.2407,-0.2387,-0.2417,-0.2423,-0.2393,-0.2397,-0.2424,-0.2432,-0.2394,-0.2327,-0.2327,-0.2327,-0.232,-0.2319,-0.2318,0,0,-0.2427,-0.2415,-0.2436,-0.245,-0.2462,-0.2458,-0.2463,-0.2472,-0.2478,-0.249,-0.2471,-0.2491,-0.2483,-0.249,-0.2484,-0.2552,-0.2465,-0.2562,-0.2575,-0.2516,-0.2514,-0.2512,-0.2468,-0.2461,-0.2559,-0.2559,-0.256,0,-0.2421,-0.2432,-0.2451,-0.248,-0.2477,-0.2467,-0.248,-0.2495,-0.2503,-0.2501,-0.2508,-0.2504,-0.2516,-0.2519,-0.2569,-0.2574,-0.2517,-0.2524,-0.2526,-0.2522,-0.2518,-0.2473,-0.2463,-0.2564,-0.2564,-0.2563,-0.2563,0,-0.2464,-0.2464,-0.2483,-0.2496,-0.2518,-0.2525,-0.2541,-0.2562,-0.2554,-0.2551,-0.2568,-0.2586,-0.2572,-0.2611,-0.2612,-0.2607,-0.2571,-0.2552,-0.2481,-0.2523,-0.2475,-0.2463,-0.2571,-0.257,-0.2568,-0.2567,0,0,-0.2438,-0.2494,-0.2492,-0.2472,-0.2512,-0.2511,-0.2557,-0.2568,-0.2546,-0.2588,-0.2561,-0.2631,-0.2619,-0.2612,-0.2623,-0.2596,-0.2576,-0.2566,-0.256,-0.2503,-0.2434,-0.2425,-0.2411,-0.2537,-0.2535,-0.2534,-0.2424,0,-0.2439,-0.2468,-0.2515,-0.25,-0.2491,-0.2518,-0.2541,-0.2557,-0.2569,-0.2556,-0.2579,-0.2565,-0.2622,-0.2609,-0.2602,-0.2574,-0.2542,-0.2606,-0.2416,-0.2411,-0.2381,-0.2397,-0.2303,-0.2196,-0.2412,-0.241,-0.2409,0,-0.2447,-0.2449,-0.2459,-0.2442,-0.2442,-0.2451,-0.2439,-0.2461,-0.2481,-0.2491,-0.2499,-0.2498,-0.2508,-0.2526,-0.2478,-0.2506,-0.2474,-0.245,-0.2444,-0.238,-0.2379,-0.2184,-0.2166,-0.2151,-0.239,-0.2392,-0.2393,0,-0.237,-0.2392,-0.238,-0.2379,-0.2392,-0.2399,-0.2401,-0.2433,-0.2432,-0.2432,-0.2419,-0.2418,-0.2405,-0.2365,-0.2392,-0.2403,-0.2307,-0.2309,-0.2263,-0.2262,-0.2115,-0.2105,-0.2033,-0.2229,-0.2229,-0.223,-0.223,0,-0.2331,-0.2306,-0.2332,-0.2308,-0.2254,-0.2312,-0.2275,-0.2294,-0.2318,-0.2305,-0.2359,-0.2344,-0.2356,-0.2335,-0.2335,-0.228,-0.2262,-0.2246,-0.2222,-0.2152,-0.2147,-0.2073,-0.2095,-0.2226,-0.2226,-0.2227,-0.2228,0,-0.2253,-0.2288,-0.2231,-0.2223,-0.2219,-0.2171,-0.2187,-0.2172,-0.2215,-0.2202,-0.22,-0.2257,-0.2244,-0.2259,-0.2203,-0.2203,-0.2109,-0.213,-0.2069,-0.2041,-0.198,-0.2012,-0.1882,-0.1832,-0.2026,-0.2025,-0.2024,0,-0.2219,-0.219,-0.2133,-0.2095,-0.2092,-0.2055,-0.205,-0.21,-0.2112,-0.2159,-0.2149,-0.2153,-0.216,-0.2102,-0.2086,-0.2036,-0.2048,-0.1922,-0.1936,-0.1948,-0.1965,-0.199,-0.1959,-0.1785,-0.1782,-0.178,-0.1778,0,-0.2103,-0.2088,-0.2032,-0.1956,-0.1927,-0.1899,-0.191,-0.1904,-0.1988,-0.1994,-0.202,-0.2023,-0.202,-0.1956,-0.1928,-0.1891,-0.1873,-0.1874,-0.187,-0.1754,-0.1783,-0.1733,-0.1915,-0.1758,-0.176,-0.1762,-0.1763,-0.1764,-0.199,-0.1915,-0.1853,-0.1774,-0.1753,-0.1745,-0.1703,-0.176,-0.1755,-0.1776,-0.1862,-0.185,-0.1846,-0.1795,-0.1769,-0.1679,-0.1731,-0.1621,-0.1653,-0.1674,-0.1639,-0.1803,-0.1643,-0.1645,-0.1646,-0.1647,-0.1648,0,-0.1822,-0.1767,-0.1686,-0.1596,-0.1551,-0.1594,-0.1607,-0.1579,-0.156,-0.1621,-0.1633,-0.1641,-0.1579,-0.1589,-0.1532,-0.1473,-0.1436,-0.1442,-0.143,-0.1404,-0.1505,-0.151,-0.1333,-0.1333,-0.1333,-0.1333,-0.1333,-0.1333,-0.1722,-0.1602,-0.1563,-0.1418,-0.1385,-0.1312,-0.1303,-0.1297,-0.1319,-0.1308,-0.1341,-0.1406,-0.1433,-0.1525,-0.1439,-0.137,-0.1341,-0.1299,-0.134,-0.1408,-0.1427,-0.1445,-0.1453,-0.1267,-0.1267,-0.1165,-0.1164,-0.1164]},{"header":{"parameterUnit":"m.s-1","parameterCategory":2,"la1":30.2991,"la2":30.254,"lo1":-89.0895,"lo2":-89.0444,"dy":0.0017,"dx":0.0017,"nx":28,"ny":28,"refTime":"2025-12-22T03:00:00:Z","depth":"0","parameterNumber":3,"parameterNumberName":"V-component_of_CURRENTS"},"data":[0,0,0,0,0,0,0,0,0,0,0,0,0,0,0,0,0,0,0,0,0,0,0,0,0,0,0,0,0,0,0,0,0,0,0,0,0,0,0,0,0,0,0,0,0,0,0,0,0,0,0,0,0,0,0,0,0,0,0.0136,0.0137,0,0.024,0.0241,0.0242,0.0247,0.0246,0.0245,0.0243,0.0332,0.0336,0.0339,0,0,0,0,0,0,0,0,0,0,0,0,0,0.007,0.0071,0.0136,0.0138,0.0139,0.024,0.0241,0.0242,0.0247,0.0246,0.0244,0.0243,0.0331,0.0335,0.0339,0,0,0,0,0,0,0,0,0,0,0,0,0,0.0129,0.0071,0.0136,0.0153,0.0156,0.0239,0.0241,0.0243,0.0248,0.0246,0.0244,0.0242,0.033,0.0335,0.034,0.0409,0,0,0.0356,0.0358,0,0,0,0,0,0,0,0,0.0125,0.0131,0.015,0.0152,0.0155,0.0229,0.025,0.0298,0.0248,0.0213,0.0243,0.0241,0.0298,0.0305,0.0329,0.0413,0.0417,0.0356,0.036,0.0362,0.0363,0,0,0,0,0,0,0,0.0121,0.0127,0.0177,0.0151,0.0155,0.02,0.0205,0.026,0.0264,0.0216,0.0216,0.0228,0.0299,0.0324,0.0331,0.0418,0.0356,0.0361,0.0364,0.0366,0.0527,0.0529,0,0,0,0,0,0,0.0104,0.0123,0.0174,0.018,0.0135,0.0202,0.0208,0.0207,0.0264,0.0271,0.023,0.0228,0.0316,0.0325,0.0334,0.0349,0.0362,0.0367,0.037,0.0526,0.0528,0.0529,0,0,0,0,0,0,0.0102,0.0107,0.017,0.0155,0.0166,0.0204,0.0204,0.021,0.0227,0.0275,0.0281,0.0239,0.0315,0.0327,0.0378,0.0355,0.0369,0.0374,0.0525,0.0527,0.0528,0.0424,0,0,0,0,0,0,0.0099,0.0105,0.0105,0.0153,0.0166,0.0204,0.0206,0.0213,0.0237,0.0236,0.0285,0.0292,0.0314,0.037,0.0383,0.0362,0.0378,0.0524,0.0526,0.0528,0.0426,0.0422,0.0418,0,0,0,0,0,0.0096,0.01,0.0104,0.0111,0.0162,0.0205,0.0215,0.0238,0.0239,0.0246,0.0283,0.029,0.0392,0.0376,0.0391,0.0371,0.0522,0.0525,0.0528,0.0428,0.0423,0.0418,0,0,0,0,0,0,0.0066,0.0103,0.0108,0.012,0.0152,0.0205,0.022,0.0239,0.0278,0.0274,0.0314,0.0325,0.0359,0.0399,0.038,0.0429,0.0456,0.0461,0.0375,0.0371,0.0367,0.0342,0.0382,0,0,0,0,0,0.0062,0.0071,0.0113,0.012,0.0136,0.0179,0.0202,0.0216,0.0256,0.027,0.0307,0.0351,0.0388,0.0403,0.0451,0.0487,0.0512,0.0486,0.0482,0.0478,0.0473,0.0493,0.0488,0.0537,0.0537,0.0537,0,0,0.0048,0.0073,0.0075,0.0115,0.0142,0.0145,0.0187,0.0214,0.021,0.0277,0.0292,0.0346,0.04,0.0427,0.0445,0.045,0.048,0.0481,0.0477,0.0474,0.0494,0.0489,0.0484,0.0539,0.0539,0.0538,0,0,0.0016,0.005,0.0039,0.0063,0.0101,0.0131,0.0134,0.0186,0.0201,0.0238,0.0276,0.0321,0.0386,0.041,0.0431,0.0448,0.0466,0.0462,0.0409,0.0427,0.0422,0.0418,0.0438,0.0437,0.045,0.045,0.045,0,-0.0009,-0.0017,0.0044,0.0036,0.0046,0.0113,0.0095,0.0128,0.0187,0.0206,0.0225,0.0325,0.0371,0.0393,0.0392,0.0432,0.0448,0.0409,0.0416,0.0413,0.041,0.0433,0.0432,0.0445,0.0446,0.0446,0.0447,0,-0.006,-0.0063,-0.0062,-0.006,-0.0034,-0.0031,0.0017,0.0046,0.0083,0.012,0.017,0.0247,0.03,0.032,0.0357,0.0364,0.0384,0.0409,0.0411,0.0398,0.0424,0.0425,0.0438,0.044,0.0441,0.0443,0,0,-0.0143,-0.011,-0.0116,-0.0123,-0.0086,-0.0068,-0.0064,-0.0031,-0.0023,0.0043,0.0057,0.0133,0.0191,0.0222,0.0279,0.0297,0.0295,0.0335,0.0338,0.0325,0.033,0.0384,0.0391,0.0308,0.0308,0.0308,0.0353,0,-0.0216,-0.0247,-0.021,-0.0241,-0.025,-0.0185,-0.0182,-0.0138,-0.0084,-0.0044,0.0038,0.0084,0.0145,0.0174,0.02,0.0283,0.0294,0.028,0.0373,0.0376,0.0399,0.0393,0.0415,0.046,0.0354,0.0354,0.0354,0,-0.0297,-0.03,-0.0344,-0.0319,-0.0317,-0.0323,-0.0286,-0.0271,-0.0197,-0.0152,-0.0091,-0.0013,0.0045,0.0097,0.0194,0.0179,0.0243,0.0299,0.0302,0.0389,0.0432,0.0462,0.0467,0.0588,0.0357,0.0357,0.0356,0,-0.0386,-0.0394,-0.0426,-0.0425,-0.0391,-0.0392,-0.0369,-0.0307,-0.0282,-0.0215,-0.0183,-0.0101,-0.0046,0.0033,0.0175,0.0173,0.0283,0.0296,0.0399,0.0404,0.0462,0.0472,0.057,0.0345,0.0345,0.0345,0.0345,0,-0.0479,-0.0503,-0.0467,-0.0487,-0.0505,-0.0459,-0.0462,-0.0421,-0.0367,-0.0337,-0.0241,-0.0194,-0.0061,0.0037,0.0142,0.0286,0.0258,0.039,0.0418,0.043,0.0437,0.0579,0.0625,0.0347,0.0346,0.0346,0.0346,0,-0.057,-0.0557,-0.0579,-0.0556,-0.0547,-0.0556,-0.0512,-0.0505,-0.0451,-0.0411,-0.0392,-0.0268,-0.0139,0.0009,0.0155,0.0254,0.0455,0.0435,0.0446,0.0476,0.0675,0.0714,0.0841,0.0903,0.0536,0.0538,0.0539,0,-0.0617,-0.0643,-0.0627,-0.063,-0.062,-0.0616,-0.0608,-0.0554,-0.0538,-0.0444,-0.0429,-0.0297,-0.0179,0.0064,0.0253,0.0438,0.0529,0.0565,0.057,0.0692,0.0755,0.0782,0.0826,0.0603,0.0605,0.0606,0.0608,0,-0.0693,-0.0686,-0.0694,-0.0696,-0.0695,-0.0689,-0.0673,-0.0674,-0.0606,-0.0556,-0.0464,-0.0365,-0.0114,0.0123,0.0376,0.049,0.0653,0.06,0.0721,0.0813,0.0854,0.0925,0.0571,0.062,0.0619,0.0618,0.0617,0.0617,-0.073,-0.0748,-0.0747,-0.0746,-0.0747,-0.0751,-0.0745,-0.0718,-0.0682,-0.0589,-0.0497,-0.0324,0.0019,0.0386,0.0521,0.0811,0.0774,0.0892,0.0926,0.0941,0.1013,0.0692,0.0782,0.0782,0.0781,0.0781,0.0781,0,-0.0762,-0.0776,-0.0787,-0.0785,-0.0791,-0.0777,-0.0771,-0.0745,-0.0697,-0.059,-0.0472,-0.01,0.0246,0.0559,0.0966,0.1128,0.1152,0.1206,0.1243,0.127,0.0985,0.1002,0.1151,0.1151,0.1151,0.1151,0.1151,0.1151,-0.0774,-0.08,-0.0802,-0.0812,-0.0812,-0.0807,-0.0801,-0.0748,-0.0664,-0.0458,-0.0255,-0.0092,0.0354,0.1021,0.1401,0.1434,0.1561,0.1551,0.1621,0.1424,0.1397,0.1372,0.1401,0.1631,0.1631,0.1893,0.1896,0.1898]}],[{"header":{"parameterUnit":"m.s-1","parameterCategory":2,"la1":30.2991,"la2":30.254,"lo1":-89.0895,"lo2":-89.0444,"dy":0.0017,"dx":0.0017,"nx":28,"ny":28,"refTime":"2025-12-22T03:00:00:Z","depth":"2","parameterNumber":2,"parameterNumberName":"U-component_of_CURRENTS"},"data":[0,0,0,0,0,0,0,0,0,0,0,0,0,0,0,0,0,0,0,0,0,0,0,0,0,0,0,0,0,0,0,0,0,0,0,0,0,0,0,0,0,0,0,0,0,0,0,0,0,0,0,0,0,0,0,0,0,0,-0.1766,-0.1766,0,-0.1759,-0.1759,-0.1758,-0.1795,-0.1797,-0.1798,-0.1799,-0.179,-0.1789,-0.1787,0,0,0,0,0,0,0,0,0,0,0,0,0,-0.1705,-0.1707,-0.1766,-0.1766,-0.1766,-0.1759,-0.1759,-0.1758,-0.1795,-0.1797,-0.1798,-0.18,-0.1791,-0.1789,-0.1787,0,0,0,0,0,0,0,0,0,0,0,0,0,-0.1716,-0.1707,-0.1766,-0.1785,-0.1787,-0.1759,-0.1759,-0.1758,-0.1795,-0.1797,-0.1799,-0.18,-0.1791,-0.1789,-0.1787,-0.1736,0,0,-0.178,-0.178,0,0,0,0,0,0,0,0,-0.1716,-0.1718,-0.1782,-0.1784,-0.1786,-0.1782,-0.1734,-0.1751,-0.1794,-0.1789,-0.1799,-0.1801,-0.1787,-0.1786,-0.1777,-0.1735,-0.1735,-0.178,-0.1779,-0.1778,-0.1777,0,0,0,0,0,0,0,-0.1715,-0.1718,-0.1761,-0.1782,-0.1784,-0.1758,-0.1763,-0.1737,-0.1776,-0.179,-0.1793,-0.1796,-0.1788,-0.1779,-0.1777,-0.1735,-0.178,-0.1778,-0.1777,-0.1776,-0.1704,-0.1703,0,0,0,0,0,0,-0.1724,-0.1718,-0.1761,-0.1761,-0.1757,-0.1759,-0.1763,-0.1779,-0.1776,-0.1778,-0.1794,-0.1797,-0.1781,-0.1779,-0.1777,-0.1828,-0.1778,-0.1776,-0.1775,-0.1704,-0.1704,-0.1703,0,0,0,0,0,0,-0.1723,-0.1729,-0.1761,-0.174,-0.1743,-0.1759,-0.1776,-0.1778,-0.1782,-0.178,-0.1782,-0.1797,-0.1783,-0.178,-0.1786,-0.1824,-0.1775,-0.1773,-0.1705,-0.1704,-0.1703,-0.1859,0,0,0,0,0,0,-0.1722,-0.1729,-0.1739,-0.1741,-0.1745,-0.1767,-0.1774,-0.1777,-0.1781,-0.1786,-0.1782,-0.1783,-0.1784,-0.179,-0.1784,-0.182,-0.1772,-0.1706,-0.1705,-0.1704,-0.1855,-0.1864,-0.1871,0,0,0,0,0,-0.172,-0.1743,-0.174,-0.1745,-0.1761,-0.1768,-0.1767,-0.1782,-0.1779,-0.1789,-0.1794,-0.1784,-0.1777,-0.1788,-0.1782,-0.1818,-0.1707,-0.1705,-0.1704,-0.1851,-0.1862,-0.1871,0,0,0,0,0,0,-0.1742,-0.1748,-0.1746,-0.1775,-0.1777,-0.1776,-0.1777,-0.1779,-0.1785,-0.1793,-0.1784,-0.1786,-0.181,-0.1766,-0.1778,-0.1783,-0.1735,-0.1732,-0.1849,-0.1858,-0.1867,-0.1867,-0.177,0,0,0,0,0,-0.1743,-0.1744,-0.1758,-0.1771,-0.1773,-0.1767,-0.1768,-0.1784,-0.1789,-0.1793,-0.1793,-0.1782,-0.179,-0.179,-0.1783,-0.1778,-0.173,-0.1786,-0.1795,-0.1802,-0.1792,-0.1747,-0.1752,-0.1698,-0.1698,-0.1698,0,0,-0.1766,-0.1752,-0.1765,-0.1771,-0.1763,-0.1789,-0.1773,-0.1786,-0.1817,-0.1788,-0.182,-0.1817,-0.1794,-0.182,-0.1822,-0.1795,-0.1797,-0.1801,-0.1809,-0.1793,-0.1747,-0.1752,-0.1757,-0.1697,-0.1697,-0.1698,0,0,-0.1796,-0.1784,-0.1804,-0.1792,-0.1788,-0.1798,-0.1804,-0.1815,-0.1831,-0.1856,-0.1856,-0.1879,-0.1858,-0.1879,-0.1879,-0.1908,-0.1849,-0.1884,-0.1929,-0.1888,-0.1894,-0.1897,-0.1877,-0.1878,-0.1882,-0.1882,-0.1882,0,-0.1809,-0.1827,-0.1811,-0.1811,-0.1809,-0.1807,-0.1839,-0.1854,-0.1872,-0.1875,-0.1885,-0.1884,-0.1897,-0.1925,-0.196,-0.1938,-0.1888,-0.1915,-0.1905,-0.1907,-0.1908,-0.1886,-0.1885,-0.189,-0.1889,-0.1888,-0.1887,0,-0.1848,-0.1857,-0.1855,-0.1859,-0.1876,-0.1877,-0.1911,-0.1927,-0.1942,-0.1951,-0.1976,-0.1995,-0.1985,-0.2006,-0.2009,-0.2019,-0.1976,-0.1936,-0.1897,-0.1924,-0.1898,-0.1894,-0.19,-0.1897,-0.1895,-0.1893,0,0,-0.185,-0.1881,-0.1871,-0.1866,-0.1885,-0.1891,-0.1954,-0.1986,-0.1988,-0.2028,-0.2031,-0.2099,-0.208,-0.2075,-0.2074,-0.2062,-0.2084,-0.2006,-0.2001,-0.2017,-0.1989,-0.1957,-0.1949,-0.203,-0.2029,-0.2028,-0.1981,0,-0.186,-0.1878,-0.1909,-0.1929,-0.1934,-0.1951,-0.1991,-0.2024,-0.2045,-0.2046,-0.2075,-0.2078,-0.2111,-0.2106,-0.2112,-0.2075,-0.2071,-0.2099,-0.193,-0.1926,-0.1919,-0.1942,-0.1799,-0.1743,-0.1977,-0.1976,-0.1976,0,-0.1846,-0.186,-0.1905,-0.1916,-0.1921,-0.1955,-0.1971,-0.2009,-0.2033,-0.2042,-0.2065,-0.2062,-0.2094,-0.2092,-0.2071,-0.2073,-0.2045,-0.2021,-0.2017,-0.1921,-0.1885,-0.174,-0.1726,-0.1968,-0.1969,-0.1969,-0.197,0,-0.1783,-0.182,-0.1852,-0.1849,-0.1908,-0.1931,-0.1958,-0.1996,-0.2005,-0.2024,-0.202,-0.2041,-0.2042,-0.2015,-0.2022,-0.2019,-0.1966,-0.1949,-0.1898,-0.1896,-0.1706,-0.1689,-0.1912,-0.1912,-0.1912,-0.1912,-0.1913,0,-0.1722,-0.1725,-0.1815,-0.1815,-0.1821,-0.1882,-0.1887,-0.1912,-0.1948,-0.1947,-0.1998,-0.2,-0.2013,-0.2002,-0.1994,-0.1945,-0.1945,-0.1906,-0.1876,-0.1759,-0.1747,-0.1873,-0.1869,-0.1911,-0.1911,-0.1911,-0.1912,0,-0.1633,-0.1691,-0.1705,-0.1779,-0.179,-0.1787,-0.1831,-0.1832,-0.1878,-0.1885,-0.1891,-0.1947,-0.1939,-0.1954,-0.1912,-0.1902,-0.1859,-0.1838,-0.1723,-0.1681,-0.1824,-0.1828,-0.1762,-0.176,-0.1759,-0.1758,-0.1757,0,-0.1592,-0.1602,-0.1659,-0.1659,-0.1692,-0.1704,-0.1714,-0.1776,-0.1794,-0.1853,-0.1852,-0.1869,-0.1868,-0.1825,-0.1797,-0.1756,-0.1814,-0.1604,-0.1589,-0.1828,-0.1806,-0.1812,-0.1818,-0.1408,-0.1404,-0.1401,-0.1399,0,-0.1517,-0.1543,-0.1562,-0.1563,-0.1575,-0.1583,-0.1613,-0.1614,-0.1699,-0.171,-0.1734,-0.1736,-0.1736,-0.164,-0.1614,-0.1574,-0.1602,-0.154,-0.1778,-0.1483,-0.1494,-0.1473,-0.149,-0.1371,-0.1374,-0.1376,-0.1378,-0.1379,-0.1438,-0.143,-0.1455,-0.1437,-0.1451,-0.1454,-0.1426,-0.1481,-0.1481,-0.1494,-0.1575,-0.1537,-0.1552,-0.1435,-0.1379,-0.1338,-0.1445,-0.1373,-0.1382,-0.1394,-0.1376,-0.1385,-0.124,-0.1242,-0.1244,-0.1245,-0.1246,0,-0.1356,-0.1338,-0.1326,-0.131,-0.1284,-0.1332,-0.1348,-0.1316,-0.1288,-0.1329,-0.1329,-0.1212,-0.1162,-0.1185,-0.1083,-0.1075,-0.1055,-0.1026,-0.0996,-0.1024,-0.1048,-0.1013,-0.078,-0.0779,-0.0777,-0.0776,0,0,-0.1291,-0.123,-0.123,-0.1143,-0.114,-0.1083,-0.1071,-0.1046,-0.1047,-0.0992,-0.0978,-0.1075,-0.113,-0.0947,-0.0915,-0.083,-0.0912,-0.0785,-0.1156,-0.1146,-0.1168,-0.1243,-0.1219,0,0,0,0,0]},{"header":{"parameterUnit":"m.s-1","parameterCategory":2,"la1":30.2991,"la2":30.254,"lo1":-89.0895,"lo2":-89.0444,"dy":0.0017,"dx":0.0017,"nx":28,"ny":28,"refTime":"2025-12-22T03:00:00:Z","depth":"2","parameterNumber":3,"parameterNumberName":"V-component_of_CURRENTS"},"data":[0,0,0,0,0,0,0,0,0,0,0,0,0,0,0,0,0,0,0,0,0,0,0,0,0,0,0,0,0,0,0,0,0,0,0,0,0,0,0,0,0,0,0,0,0,0,0,0,0,0,0,0,0,0,0,0,0,0,-0.0118,-0.0117,0,-0.0061,-0.0061,-0.006,-0.0031,-0.003,-0.003,-0.003,0.0047,0.0049,0.0051,0,0,0,0,0,0,0,0,0,0,0,0,0,-0.0215,-0.0214,-0.0118,-0.0117,-0.0116,-0.0061,-0.0061,-0.006,-0.0031,-0.003,-0.003,-0.003,0.0046,0.0048,0.0051,0,0,0,0,0,0,0,0,0,0,0,0,0,-0.0169,-0.0213,-0.0118,-0.0094,-0.0091,-0.0061,-0.0061,-0.006,-0.0031,-0.003,-0.003,-0.003,0.0046,0.0048,0.0051,0.0062,0,0,0.006,0.0061,0,0,0,0,0,0,0,0,-0.0172,-0.0166,-0.0098,-0.0095,-0.0092,-0.0051,-0.0067,-0.0017,-0.0031,-0.0055,-0.003,-0.003,0.0017,0.0022,0.0029,0.0066,0.0069,0.006,0.0061,0.0063,0.0063,0,0,0,0,0,0,0,-0.0175,-0.0168,-0.0097,-0.0097,-0.0093,-0.009,-0.0084,-0.0057,-0.0023,-0.0053,-0.005,-0.0042,0.0018,0.0027,0.0031,0.007,0.006,0.0062,0.0064,0.0065,0.0089,0.0088,0,0,0,0,0,0,-0.0178,-0.0171,-0.0099,-0.0095,-0.013,-0.0089,-0.0081,-0.0066,-0.0023,-0.0016,-0.0042,-0.004,0.0022,0.0028,0.0034,0.006,0.0063,0.0065,0.0067,0.009,0.0089,0.0088,0,0,0,0,0,0,-0.018,-0.0172,-0.0101,-0.0131,-0.0122,-0.0087,-0.007,-0.0065,-0.0056,-0.0014,-0.0007,-0.0038,0.0022,0.003,0.0062,0.0063,0.0067,0.0069,0.0092,0.009,0.0089,0.0105,0,0,0,0,0,0,-0.0183,-0.0173,-0.0167,-0.0131,-0.012,-0.009,-0.007,-0.0064,-0.005,-0.0047,-0.0009,-0.0001,0.0023,0.0058,0.0065,0.0067,0.0071,0.0093,0.0091,0.0089,0.0106,0.0104,0.0103,0,0,0,0,0,-0.0186,-0.0181,-0.0167,-0.0159,-0.0112,-0.009,-0.0084,-0.006,-0.005,-0.005,-0.0017,-0.0002,0.0049,0.006,0.0069,0.0071,0.0094,0.0092,0.0089,0.0107,0.0105,0.0103,0,0,0,0,0,0,-0.0237,-0.0176,-0.016,-0.0141,-0.0119,-0.0084,-0.0082,-0.0063,-0.0038,-0.0032,0.0003,0.0013,0.0039,0.0043,0.0054,0.0065,0.0066,0.0066,0.0076,0.0075,0.0073,0.0063,0.0074,0,0,0,0,0,-0.0241,-0.0213,-0.017,-0.016,-0.0148,-0.0116,-0.0104,-0.0084,-0.0055,-0.0044,-0.0015,0.0008,0.0034,0.0046,0.0068,0.0083,0.0098,0.0079,0.0078,0.0077,0.007,0.0103,0.0105,0.0081,0.0081,0.0081,0,0,-0.0261,-0.0223,-0.021,-0.0167,-0.0149,-0.0136,-0.0109,-0.0092,-0.0081,-0.0039,-0.0019,0.0013,0.0037,0.0059,0.0068,0.0065,0.0091,0.0074,0.0074,0.0067,0.0101,0.0104,0.0107,0.0079,0.0079,0.0079,0,0,-0.0283,-0.0252,-0.0234,-0.0217,-0.018,-0.0156,-0.0152,-0.0113,-0.0096,-0.0066,-0.0035,0.0002,0.0029,0.0057,0.0072,0.0071,0.0088,0.0058,0.0045,0.0078,0.0081,0.0084,0.0112,0.0117,0.0051,0.0051,0.0051,0,-0.0314,-0.0284,-0.0234,-0.0221,-0.0213,-0.0167,-0.0166,-0.014,-0.0097,-0.0082,-0.0064,-0.0003,0.0031,0.0063,0.0063,0.0073,0.0083,0.006,0.008,0.0083,0.0086,0.0113,0.0119,0.0052,0.0052,0.0052,0.0052,0,-0.0321,-0.0307,-0.0304,-0.0264,-0.0247,-0.0243,-0.0197,-0.0179,-0.0147,-0.0114,-0.0071,-0.0014,0.0018,0.0033,0.0055,0.008,0.0079,0.0086,0.0094,0.009,0.0118,0.0124,0.0053,0.0052,0.0052,0.0052,0,0,-0.0372,-0.0318,-0.0319,-0.0314,-0.0272,-0.0259,-0.0239,-0.0206,-0.0192,-0.0137,-0.0114,-0.0048,-0.0012,0.0004,0.004,0.0072,0.012,0.0079,0.008,0.0122,0.0183,0.021,0.0219,0.0128,0.0129,0.013,0.0198,0,-0.0403,-0.0389,-0.0349,-0.0354,-0.0352,-0.0309,-0.0295,-0.0255,-0.0212,-0.0177,-0.0106,-0.0066,-0.0027,-0.0003,0.0038,0.0097,0.0132,0.01,0.0165,0.0166,0.0206,0.0226,0.0199,0.0259,0.0203,0.0204,0.0205,0,-0.0429,-0.0414,-0.042,-0.0396,-0.0391,-0.0385,-0.0354,-0.0332,-0.0268,-0.0233,-0.0176,-0.012,-0.0053,-0.002,0.0084,0.0056,0.0115,0.0164,0.0168,0.0189,0.0204,0.025,0.0272,0.0215,0.0214,0.0213,0.0213,0,-0.0489,-0.0468,-0.0474,-0.047,-0.0433,-0.043,-0.0407,-0.0354,-0.0334,-0.0269,-0.0242,-0.0156,-0.0107,-0.0025,0.0088,0.008,0.0201,0.0206,0.0287,0.0289,0.0277,0.0277,0.0278,0.0278,0.0277,0.0277,0.0277,0,-0.0543,-0.0548,-0.0504,-0.0514,-0.0519,-0.0477,-0.0471,-0.0436,-0.0387,-0.0361,-0.0276,-0.0233,-0.0107,-0.0017,0.0075,0.0204,0.0196,0.0291,0.0313,0.0281,0.028,0.0243,0.0238,0.028,0.0279,0.0279,0.0278,0,-0.0608,-0.0582,-0.0588,-0.0558,-0.0549,-0.0551,-0.0513,-0.0504,-0.0454,-0.0418,-0.0399,-0.0288,-0.0169,-0.0036,0.0108,0.0192,0.0309,0.0355,0.031,0.0325,0.0375,0.0369,0.0447,0.0448,0.045,0.0451,0.0452,0,-0.0633,-0.0646,-0.0624,-0.0625,-0.0613,-0.0604,-0.0596,-0.0547,-0.0532,-0.0447,-0.0434,-0.0311,-0.0212,0.0014,0.0178,0.0348,0.0349,0.0421,0.0412,0.0381,0.0394,0.0387,0.038,0.0401,0.0402,0.0402,0.0402,0,-0.0688,-0.0681,-0.068,-0.0679,-0.0677,-0.067,-0.0654,-0.0654,-0.0593,-0.055,-0.0471,-0.0385,-0.0162,0.0027,0.0252,0.0348,0.0392,0.0435,0.0422,0.0363,0.0344,0.0355,0.0348,0.0406,0.0406,0.0405,0.0405,0.0405,-0.0717,-0.0732,-0.0727,-0.0722,-0.0723,-0.0727,-0.0723,-0.07,-0.067,-0.0591,-0.0512,-0.0366,-0.0179,0.014,0.0301,0.045,0.0447,0.0481,0.0478,0.0474,0.0457,0.0441,0.0518,0.0519,0.0519,0.0519,0.0519,0,-0.0754,-0.0759,-0.0764,-0.076,-0.0766,-0.0753,-0.0748,-0.0728,-0.0691,-0.0602,-0.0505,-0.0298,-0.0077,0.012,0.0361,0.0505,0.0487,0.0523,0.0469,0.0465,0.0461,0.0441,0.05,0.0501,0.0501,0.0501,0,0,-0.0775,-0.0785,-0.0782,-0.0788,-0.0789,-0.079,-0.0786,-0.0743,-0.0673,-0.0575,-0.0465,-0.0317,-0.0074,0.009,0.0268,0.0394,0.0392,0.0404,0.0404,0.0314,0.0309,0.0422,0.0386,0,0,0,0,0]}],[{"header":{"parameterUnit":"m.s-1","parameterCategory":2,"la1":30.2991,"la2":30.254,"lo1":-89.0895,"lo2":-89.0444,"dy":0.0017,"dx":0.0017,"nx":28,"ny":28,"refTime":"2025-12-22T03:00:00:Z","depth":"4","parameterNumber":2,"parameterNumberName":"U-component_of_CURRENTS"},"data":[0,0,0,0,0,0,0,0,0,0,0,0,0,0,0,0,0,0,0,0,0,0,0,0,0,0,0,0,0,0,0,0,0,0,0,0,0,0,0,0,0,0,0,0,0,0,0,0,0,0,0,0,0,0,0,0,0,0,-0.0966,-0.0966,0,-0.1,-0.1,-0.1,-0.1072,-0.1074,-0.1075,-0.1077,-0.1109,-0.1108,-0.1108,0,0,0,0,0,0,0,0,0,0,0,0,0,-0.0844,-0.0847,-0.0966,-0.0966,-0.0967,-0.1,-0.1,-0.1001,-0.1072,-0.1074,-0.1076,-0.1078,-0.1109,-0.1108,-0.1108,0,0,0,0,0,0,0,0,0,0,0,0,0,-0.0889,-0.0848,-0.0965,-0.1007,-0.1011,-0.1,-0.1,-0.1001,-0.1072,-0.1074,-0.1076,-0.1078,-0.1109,-0.1108,-0.1108,-0.1056,0,0,-0.1105,-0.1105,0,0,0,0,0,0,0,0,-0.0886,-0.0893,-0.1,-0.1004,-0.1009,-0.1035,-0.0969,-0.1019,-0.1071,-0.1048,-0.1077,-0.108,-0.1083,-0.1084,-0.1084,-0.1058,-0.1059,-0.1105,-0.1104,-0.1104,-0.1104,0,0,0,0,0,0,0,-0.0883,-0.0891,-0.0978,-0.1001,-0.1006,-0.0983,-0.0993,-0.0978,-0.1051,-0.105,-0.1055,-0.106,-0.1085,-0.1085,-0.1086,-0.106,-0.1105,-0.1104,-0.1104,-0.1103,-0.1095,-0.1095,0,0,0,0,0,0,-0.0885,-0.0889,-0.0977,-0.0979,-0.0953,-0.0984,-0.0995,-0.1023,-0.1052,-0.1058,-0.1058,-0.1063,-0.1085,-0.1087,-0.1087,-0.113,-0.1104,-0.1103,-0.1103,-0.1094,-0.1095,-0.1095,0,0,0,0,0,0,-0.0883,-0.0893,-0.0976,-0.0934,-0.0943,-0.0985,-0.1015,-0.1023,-0.1048,-0.1058,-0.1065,-0.1079,-0.1087,-0.1088,-0.1101,-0.1128,-0.1103,-0.1102,-0.1094,-0.1095,-0.1095,-0.115,0,0,0,0,0,0,-0.0879,-0.0893,-0.0909,-0.0935,-0.0946,-0.0988,-0.1013,-0.1022,-0.1046,-0.1054,-0.1077,-0.1081,-0.1089,-0.1102,-0.11,-0.1126,-0.1101,-0.1094,-0.1094,-0.1095,-0.1148,-0.1152,-0.1156,0,0,0,0,0,-0.0875,-0.0882,-0.091,-0.092,-0.097,-0.0989,-0.0992,-0.1027,-0.1045,-0.1057,-0.1077,-0.1082,-0.1105,-0.1101,-0.1099,-0.1126,-0.1093,-0.1094,-0.1095,-0.1146,-0.1151,-0.1156,0,0,0,0,0,0,-0.0833,-0.089,-0.0922,-0.0948,-0.0979,-0.1002,-0.1005,-0.103,-0.1052,-0.1065,-0.1077,-0.1082,-0.1105,-0.1096,-0.1092,-0.1123,-0.1102,-0.1102,-0.1142,-0.1147,-0.1151,-0.1185,-0.1101,0,0,0,0,0,-0.0833,-0.0858,-0.0908,-0.0927,-0.0944,-0.0977,-0.0987,-0.102,-0.1041,-0.1055,-0.1074,-0.1087,-0.1097,-0.1109,-0.1111,-0.1117,-0.1121,-0.1134,-0.1138,-0.1142,-0.1167,-0.1191,-0.12,-0.1097,-0.1097,-0.1097,0,0,-0.082,-0.0853,-0.0869,-0.092,-0.0943,-0.0984,-0.099,-0.1016,-0.1061,-0.105,-0.1103,-0.1098,-0.1099,-0.1122,-0.1132,-0.1125,-0.1168,-0.1142,-0.1146,-0.117,-0.1193,-0.1203,-0.1212,-0.1098,-0.1098,-0.1098,0,0,-0.0805,-0.0842,-0.0866,-0.0902,-0.095,-0.0976,-0.0991,-0.1034,-0.1067,-0.1103,-0.1113,-0.1127,-0.1139,-0.1157,-0.1162,-0.1182,-0.1184,-0.118,-0.1237,-0.1259,-0.1269,-0.1277,-0.1278,-0.1286,-0.1188,-0.1188,-0.1188,0,-0.0794,-0.085,-0.0869,-0.0911,-0.0952,-0.0982,-0.1033,-0.1059,-0.1106,-0.1128,-0.1133,-0.1166,-0.1163,-0.12,-0.1219,-0.1196,-0.1204,-0.1221,-0.1268,-0.1276,-0.1284,-0.1283,-0.1291,-0.1191,-0.119,-0.119,-0.119,0,-0.081,-0.087,-0.088,-0.0963,-0.0994,-0.1039,-0.1093,-0.1127,-0.1162,-0.1191,-0.1234,-0.1233,-0.1257,-0.1255,-0.125,-0.1301,-0.1286,-0.1267,-0.1262,-0.1298,-0.1294,-0.1302,-0.1195,-0.1194,-0.1193,-0.1192,0,0,-0.0773,-0.088,-0.0893,-0.0959,-0.1041,-0.1073,-0.1134,-0.12,-0.1244,-0.1279,-0.1335,-0.1352,-0.1348,-0.1355,-0.1344,-0.1374,-0.1422,-0.1357,-0.1357,-0.137,-0.1468,-0.1351,-0.1348,-0.1419,-0.1422,-0.1423,-0.1437,0,-0.0801,-0.0899,-0.0941,-0.1046,-0.1112,-0.1165,-0.122,-0.1274,-0.1311,-0.1361,-0.1373,-0.1408,-0.1387,-0.1401,-0.1428,-0.1422,-0.1449,-0.142,-0.1421,-0.1421,-0.1323,-0.1355,-0.143,-0.1443,-0.1444,-0.1446,-0.1446,0,-0.0817,-0.0895,-0.1002,-0.1128,-0.1158,-0.1217,-0.1313,-0.1365,-0.142,-0.1445,-0.1478,-0.148,-0.1521,-0.1498,-0.1531,-0.1517,-0.151,-0.1504,-0.1504,-0.1389,-0.132,-0.1401,-0.146,-0.1459,-0.1458,-0.1457,-0.1456,0,-0.0797,-0.0936,-0.1031,-0.108,-0.1212,-0.1266,-0.1327,-0.139,-0.1426,-0.1497,-0.1516,-0.1561,-0.1577,-0.1596,-0.1571,-0.1566,-0.16,-0.1576,-0.1466,-0.1456,-0.1535,-0.1526,-0.1617,-0.1617,-0.1617,-0.1617,-0.1617,0,-0.0815,-0.0892,-0.1039,-0.1099,-0.12,-0.1283,-0.1363,-0.142,-0.1484,-0.1509,-0.1556,-0.1571,-0.1609,-0.1614,-0.1603,-0.1547,-0.1618,-0.1491,-0.1461,-0.1552,-0.1545,-0.1539,-0.153,-0.1618,-0.1617,-0.1617,-0.1617,0,-0.0765,-0.0868,-0.0984,-0.1146,-0.1195,-0.1261,-0.1372,-0.1411,-0.1483,-0.152,-0.1541,-0.1588,-0.1591,-0.16,-0.1617,-0.1559,-0.1534,-0.1498,-0.1591,-0.1563,-0.1372,-0.1365,-0.1386,-0.1382,-0.1379,-0.1377,-0.1374,0,-0.0744,-0.0807,-0.099,-0.1053,-0.1132,-0.1237,-0.129,-0.1392,-0.1418,-0.1504,-0.1504,-0.1542,-0.1554,-0.1474,-0.151,-0.1479,-0.1457,-0.1437,-0.1421,-0.1384,-0.1353,-0.1352,-0.1349,-0.1369,-0.1368,-0.1367,-0.1367,0,-0.0705,-0.0775,-0.0874,-0.1003,-0.1091,-0.1163,-0.1251,-0.1258,-0.1351,-0.1434,-0.1416,-0.1408,-0.1406,-0.1397,-0.1377,-0.1357,-0.1449,-0.1403,-0.141,-0.1395,-0.1363,-0.1336,-0.1337,-0.1355,-0.1357,-0.1358,-0.1359,0,-0.0659,-0.0708,-0.0837,-0.0942,-0.1033,-0.1061,-0.1123,-0.1159,-0.1196,-0.129,-0.1282,-0.1323,-0.1385,-0.1334,-0.1319,-0.1285,-0.1268,-0.1225,-0.1241,-0.1254,-0.1202,-0.1143,-0.1054,0,0,0,0,0,-0.0606,-0.0661,-0.076,-0.0869,-0.0947,-0.0991,-0.1079,-0.1133,-0.1223,-0.1171,-0.1221,-0.1209,-0.1186,-0.1213,-0.1149,-0.1265,-0.1277,-0.1187,-0.1237,-0.1293,-0.1306,-0.1257,0,0,0,0,0,0,-0.0576,-0.066,-0.0733,-0.0777,-0.0817,-0.0878,-0.0921,-0.0989,-0.0966,-0.1062,-0.105,-0.1129,-0.1121,-0.1194,-0.112,-0.1128,-0.1133,-0.1224,-0.1221,-0.1286,-0.1297,-0.1308,-0.1262,0,0,0,0,0]},{"header":{"parameterUnit":"m.s-1","parameterCategory":2,"la1":30.2991,"la2":30.254,"lo1":-89.0895,"lo2":-89.0444,"dy":0.0017,"dx":0.0017,"nx":28,"ny":28,"refTime":"2025-12-22T03:00:00:Z","depth":"4","parameterNumber":3,"parameterNumberName":"V-component_of_CURRENTS"},"data":[0,0,0,0,0,0,0,0,0,0,0,0,0,0,0,0,0,0,0,0,0,0,0,0,0,0,0,0,0,0,0,0,0,0,0,0,0,0,0,0,0,0,0,0,0,0,0,0,0,0,0,0,0,0,0,0,0,0,-0.0214,-0.0214,0,-0.0208,-0.0208,-0.0208,-0.0191,-0.0191,-0.019,-0.019,-0.0168,-0.0168,-0.0168,0,0,0,0,0,0,0,0,0,0,0,0,0,-0.0218,-0.0218,-0.0214,-0.0214,-0.0214,-0.0208,-0.0208,-0.0208,-0.0191,-0.0191,-0.019,-0.019,-0.0168,-0.0168,-0.0167,0,0,0,0,0,0,0,0,0,0,0,0,0,-0.0216,-0.0218,-0.0214,-0.0204,-0.0203,-0.0208,-0.0208,-0.0208,-0.0191,-0.0191,-0.019,-0.0189,-0.0168,-0.0168,-0.0167,-0.0181,0,0,-0.0167,-0.0167,0,0,0,0,0,0,0,0,-0.0216,-0.0216,-0.0206,-0.0205,-0.0203,-0.0199,-0.0201,-0.0198,-0.0192,-0.0197,-0.019,-0.0189,-0.0176,-0.0175,-0.0178,-0.018,-0.0179,-0.0167,-0.0167,-0.0167,-0.0167,0,0,0,0,0,0,0,-0.0216,-0.0216,-0.0213,-0.0206,-0.0204,-0.0202,-0.0201,-0.0201,-0.0192,-0.0197,-0.0195,-0.0193,-0.0176,-0.0178,-0.0177,-0.0178,-0.0167,-0.0167,-0.0167,-0.0166,-0.0163,-0.0163,0,0,0,0,0,0,-0.0215,-0.0216,-0.0213,-0.0213,-0.0207,-0.0202,-0.0201,-0.0202,-0.0192,-0.0189,-0.0193,-0.0192,-0.0179,-0.0177,-0.0176,-0.0173,-0.0167,-0.0166,-0.0166,-0.0163,-0.0163,-0.0163,0,0,0,0,0,0,-0.0215,-0.0215,-0.0214,-0.0213,-0.0213,-0.0202,-0.0204,-0.0202,-0.0205,-0.0189,-0.0186,-0.0197,-0.0178,-0.0177,-0.0176,-0.0172,-0.0166,-0.0166,-0.0163,-0.0163,-0.0163,-0.0178,0,0,0,0,0,0,-0.0215,-0.0215,-0.0223,-0.0213,-0.0212,-0.0217,-0.0204,-0.0203,-0.0204,-0.0202,-0.0192,-0.0189,-0.0178,-0.0177,-0.0176,-0.0172,-0.0166,-0.0163,-0.0163,-0.0163,-0.0177,-0.0178,-0.0179,0,0,0,0,0,-0.0216,-0.023,-0.0223,-0.0223,-0.0221,-0.0217,-0.0217,-0.0208,-0.0205,-0.0208,-0.0201,-0.0189,-0.0176,-0.0177,-0.0176,-0.0172,-0.0163,-0.0163,-0.0163,-0.0177,-0.0178,-0.0179,0,0,0,0,0,0,-0.0236,-0.0229,-0.0221,-0.0233,-0.0224,-0.0214,-0.0221,-0.0213,-0.0212,-0.0211,-0.0197,-0.0194,-0.019,-0.0183,-0.0184,-0.017,-0.0165,-0.0165,-0.0176,-0.0177,-0.0178,-0.017,-0.0166,0,0,0,0,0,-0.0243,-0.0251,-0.0238,-0.0246,-0.0245,-0.0234,-0.0234,-0.0225,-0.0219,-0.0218,-0.021,-0.02,-0.0191,-0.0186,-0.018,-0.0179,-0.0149,-0.0173,-0.0174,-0.0175,-0.0167,-0.0111,-0.0105,-0.0163,-0.0163,-0.0163,0,0,-0.0251,-0.025,-0.0253,-0.0251,-0.0246,-0.0244,-0.0233,-0.0234,-0.0229,-0.0217,-0.0215,-0.0207,-0.0193,-0.0187,-0.0184,-0.0179,-0.0146,-0.0175,-0.0176,-0.0167,-0.011,-0.0104,-0.0099,-0.0164,-0.0164,-0.0164,0,0,-0.027,-0.0271,-0.0281,-0.0275,-0.0268,-0.0259,-0.026,-0.025,-0.0244,-0.0242,-0.0229,-0.0217,-0.0211,-0.0193,-0.0185,-0.0189,-0.0156,-0.0189,-0.0184,-0.0129,-0.0124,-0.0118,-0.0086,-0.0077,-0.0185,-0.0186,-0.0186,0,-0.0277,-0.0288,-0.0283,-0.0287,-0.0283,-0.0266,-0.0268,-0.0261,-0.0251,-0.0243,-0.0241,-0.0215,-0.021,-0.0187,-0.0188,-0.019,-0.0158,-0.0181,-0.0129,-0.0123,-0.0117,-0.0085,-0.0075,-0.0186,-0.0186,-0.0186,-0.0186,0,-0.0297,-0.0304,-0.031,-0.0306,-0.0302,-0.0302,-0.0285,-0.0281,-0.0272,-0.0256,-0.0237,-0.0222,-0.0201,-0.0199,-0.0197,-0.0156,-0.0149,-0.0139,-0.0124,-0.0112,-0.0079,-0.0069,-0.0187,-0.0187,-0.0187,-0.0187,0,0,-0.0311,-0.0322,-0.0323,-0.0323,-0.0311,-0.0309,-0.0301,-0.0285,-0.0274,-0.0256,-0.0233,-0.0218,-0.0201,-0.019,-0.0179,-0.0136,-0.0081,-0.0122,-0.0118,-0.0086,0.0032,0.001,0.0019,-0.0055,-0.0053,-0.0051,0.0034,0,-0.0324,-0.0343,-0.0339,-0.0343,-0.0347,-0.0327,-0.032,-0.0301,-0.0281,-0.0257,-0.0224,-0.0204,-0.0199,-0.0189,-0.0143,-0.0101,-0.0052,-0.0105,0.0013,0.0016,-0.0001,0.0031,-0.0045,0.0041,0.0044,0.0046,0.0047,0,-0.0342,-0.0351,-0.0367,-0.0362,-0.036,-0.036,-0.0339,-0.0328,-0.0287,-0.027,-0.0231,-0.0202,-0.0153,-0.0144,-0.0042,-0.0074,-0.0019,0.0021,0.0026,0.0021,0.0014,0.003,0.0066,0.0064,0.0063,0.0062,0.0061,0,-0.0362,-0.0368,-0.0384,-0.0383,-0.0375,-0.0376,-0.0367,-0.0336,-0.0327,-0.0275,-0.0258,-0.0187,-0.0157,-0.007,-0.0003,-0.0011,0.0119,0.0119,0.0156,0.0154,0.0154,0.0147,0.0216,0.0216,0.0215,0.0215,0.0215,0,-0.038,-0.039,-0.0399,-0.0407,-0.0417,-0.0399,-0.0398,-0.0379,-0.0345,-0.033,-0.0269,-0.0238,-0.0133,-0.0056,0.0016,0.011,0.0138,0.0168,0.0184,0.0142,0.0133,0.016,0.0153,0.0218,0.0218,0.0217,0.0217,0,-0.0403,-0.0411,-0.0428,-0.043,-0.0433,-0.0441,-0.0435,-0.0429,-0.0394,-0.0368,-0.0353,-0.0268,-0.0169,-0.0066,0.0072,0.0121,0.022,0.0251,0.0189,0.0197,0.0214,0.0205,0.0307,0.0307,0.0307,0.0307,0.0307,0,-0.0416,-0.0433,-0.0454,-0.047,-0.0477,-0.0485,-0.0491,-0.0463,-0.0453,-0.039,-0.0378,-0.0279,-0.0215,-0.0037,0.007,0.0221,0.0236,0.0286,0.0263,0.0224,0.0229,0.0219,0.021,0.0308,0.0308,0.0308,0.0308,0,-0.0437,-0.0453,-0.0471,-0.0506,-0.0525,-0.0535,-0.0539,-0.0536,-0.0495,-0.0466,-0.039,-0.029,-0.0177,-0.0043,0.0075,0.018,0.0253,0.0288,0.0288,0.0267,0.0226,0.0228,0.0219,0.0308,0.0308,0.0308,0.0308,0,-0.045,-0.0474,-0.0505,-0.0531,-0.0561,-0.0574,-0.0571,-0.0547,-0.0527,-0.0455,-0.0431,-0.03,-0.0219,-0.0064,0.0043,0.0146,0.0168,0.0195,0.02,0.0201,0.0138,0.0067,0.0128,0,0,0,0,0,-0.0451,-0.0485,-0.0523,-0.0552,-0.0583,-0.0594,-0.0596,-0.0583,-0.0548,-0.05,-0.0462,-0.0354,-0.0182,-0.0104,-0.0004,0.0036,0.0177,0.0155,0.0207,0.031,0.031,0.0251,0,0,0,0,0,0,-0.0452,-0.0499,-0.0525,-0.0563,-0.0585,-0.0609,-0.0611,-0.0587,-0.0551,-0.0504,-0.0411,-0.0344,-0.0177,-0.0242,-0.0007,0.0025,0.0069,0.0242,0.0244,0.0311,0.031,0.031,0.025,0,0,0,0,0]}]]